Temp_Advection
nan nan nan nan nan nan nan nan nan nan nan nan nan nan nan nan nan nan nan nan nan nan nan nan nan nan nan nan nan nan nan nan nan nan nan nan nan nan nan nan nan nan nan nan nan nan nan nan nan nan nan nan nan nan nan nan nan nan nan nan nan nan
nan 0 -0 0 0 0 0 0 0 0 0 0 0 0 0 0 0 0 0 0 0 -0 -0 0 0 0 0 0 0 0 0 0 0 0 -0 0 0 0 0 0 0 0 0 0 0 0 0 0 0 0 0 0 -0 -0 -0 0 0 0 0 -0 -0 nan
nan -0 0 0 0 0 0 0 0 -0 0 0 0 0 0 0 0 0 0 0 0 0 0 0 0 0 0 0 0 0 0 0 0 0 0 0 0 0 0 0 0 0 0 0 0 0 0 0 0 0 0 0 0 -0 -0 0 0 0 -0 -0 -0 nan
nan -0 0 0 0 0 0 0 0 0 0 -0 -0 0 0 0 0 0 0 0 -0 -0 0 -0 0 0 0 0 0 0 0 0 0 0 0 0 0 0 0 0 0 0 0 0 0 0 0 0 0 0 0 0 0 0 -0 0 0 -0 -0 -0 -0 nan
nan 0 1 0 0 0 0 0 0 0 0 0 -0 0 0 -0 -0 0 -0 -0 -0 -0 -0 -0 -0 0 0 0 0 -0 0 0 0 0 0 0 0 0 0 0 0 0 0 0 0 0 0 0 0 0 0 0 0 0 0 0 0 -0 -0 0 -0 nan
nan 1 1 1 1 0 0 -0 0 0 0 0 -0 0 0 -0 -0 0 -0 -0 0 0 -0 0 0 0 0 0 -0 0 0 0 0 0 0 0 0 0 0 0 0 0 0 -0 0 0 -0 -0 0 0 0 0 0 0 0 0 -0 -0 0 0 -0 nan
nan 1 0 1 1 0 -0 -0 -0 -0 0 0 0 0 0 -0 -0 -0 -0 -0 0 0 0 0 0 0 -0 0 -0 0 0 0 0 -0 0 0 0 0 0 0 0 0 0 0 0 -0 -0 -0 -0 0 0 -0 0 0 0 0 -0 0 0 0 -0 nan
nan 0 0 0 0 -0 -0 -0 -0 0 0 0 0 0 0 0 -0 -0 0 0 0 0 0 0 0 0 0 0 -0 0 0 0 0 -0 0 0 0 0 0 0 0 0 0 0 -0 -0 -0 -0 0 -0 -0 0 0 0 0 0 0 0 0 0 -0 nan
nan 0 0 -0 -0 -0 -0 0 0 0 0 0 0 -0 0 1 -0 -0 0 0 -0 -0 0 -0 -0 0 -0 -0 -0 -0 0 0 0 -0 0 0 0 -0 -0 0 0 0 0 -0 -0 -0 -0 0 0 -0 0 0 0 0 0 0 0 0 0 -0 -0 nan
nan 0 0 -1 -1 0 0 1 1 0 0 0 -0 -0 -0 0 0 0 0 0 -0 -0 -0 -0 -0 -0 -0 -0 -0 0 0 -0 -0 -0 0 -0 -0 -0 -0 -0 0 0 -0 -0 -0 -0 0 0 0 0 -0 0 0 0 0 -0 0 0 -0 -0 -0 nan
nan 0 -0 -0 0 1 1 1 0 -0 0 -0 -0 -0 -0 -0 0 0 0 0 0 0 0 0 0 -0 -0 -0 -0 0 0 -0 0 -0 -0 -0 -0 -0 -0 -0 0 0 0 0 -0 -0 0 0 0 0 0 0 0 -0 -0 -0 -0 0 0 0 -0 nan
nan 0 0 1 1 1 0 0 0 -0 0 0 -0 -0 0 0 0 0 -0 0 0 0 0 0 -0 -0 0 0 0 0 0 0 0 -0 -0 -0 -0 -0 -0 1 0 0 0 0 0 0 0 0 0 0 0 0 -0 -0 0 0 -0 -0 0 0 0 nan
nan 0 0 1 0 -0 -0 -0 -0 -0 -0 0 0 -0 -0 0 0 -0 -0 -0 -0 -0 -0 -0 -0 0 0 0 0 0 0 0 0 0 0 0 0 -0 0 1 0 -0 0 0 0 0 0 0 0 0 0 0 0 0 0 0 0 -0 -0 0 0 nan
nan -0 -0 -0 -0 -0 -0 -0 -0 -0 -0 -0 0 -0 -0 -0 -0 -0 -0 -0 -0 -0 -0 0 0 0 0 0 0 0 0 0 0 0 0 0 -0 -0 0 1 0 -0 0 0 0 0 0 0 0 0 0 0 0 -0 -0 0 0 0 0 -0 0 nan
nan -0 -0 -0 -0 -0 -0 -0 -0 -0 -0 -0 -0 -0 -0 -0 -0 0 0 -0 -0 0 0 0 0 0 0 0 0 -0 0 0 -0 0 0 0 -0 0 0 0 -0 -0 0 0 0 0 0 0 0 0 0 -0 0 -0 -0 0 0 0 0 0 0 nan
nan 0 0 -0 -0 -0 -0 -0 -0 -0 -0 -0 -0 -0 -0 0 0 0 0 0 0 0 0 -0 0 0 0 0 -0 -0 0 0 -0 0 0 -0 -0 0 0 -0 -0 -0 0 0 0 0 0 0 -0 -0 0 -0 -0 -0 0 -0 -0 0 0 0 0 nan
nan 0 0 0 -0 -0 -0 -0 -0 -0 -0 -0 -0 -0 0 0 0 0 0 0 0 0 -0 -0 0 0 0 0 -0 0 0 -0 -0 0 0 -0 0 0 0 -0 -0 -0 -0 -0 0 0 0 0 -0 -0 0 0 -0 -0 -0 -0 -0 -0 -0 -0 0 nan
nan 0 0 0 0 -0 -0 0 0 -0 -0 0 -0 -0 0 0 0 0 0 0 0 0 0 0 0 0 0 -0 -0 0 0 -0 -0 0 0 0 0 0 -0 -0 0 -0 -0 -0 0 0 0 0 0 0 0 0 -0 -0 -0 -0 -0 -0 -0 -0 -0 nan
nan 0 0 0 0 0 -0 -0 -0 -0 -0 -0 -0 0 0 -0 -0 0 0 0 0 0 0 0 0 0 0 -0 -0 -0 -0 -0 0 0 0 0 0 -0 -0 0 0 -0 -0 -0 -0 0 0 -0 0 0 0 0 0 -0 0 0 0 0 -0 -0 -0 nan
nan 0 0 0 0 0 0 0 0 -0 -0 -0 0 -0 -0 -0 -0 -0 0 0 -0 0 0 0 0 0 -0 -0 0 0 0 0 0 0 0 0 0 0 0 0 0 -0 -0 0 -0 0 0 0 0 0 0 0 0 0 0 0 0 0 0 -0 -0 nan
nan -0 0 0 0 0 0 0 0 0 -0 0 0 -0 -0 -0 -0 -0 -0 0 0 0 -0 -0 0 0 -0 0 0 0 0 0 0 -0 0 0 0 0 0 0 0 0 0 0 0 0 0 0 0 0 0 0 0 0 0 -0 0 0 0 0 -0 nan
nan -0 0 0 -0 -0 0 0 0 -0 0 0 -0 -0 0 0 -0 0 -0 -0 -0 0 0 0 0 0 0 0 -0 -0 0 0 -0 -0 0 -0 -0 0 0 -0 0 0 -0 -0 0 0 -0 0 0 0 0 -0 0 0 0 -0 -0 0 0 0 0 nan
nan -0 0 -0 -0 -0 0 -0 -0 -0 0 0 -0 -0 0 -0 -0 -0 -0 -0 -0 -0 0 0 0 0 0 0 -0 -0 0 0 -0 -0 0 -0 -0 -0 -0 0 0 0 0 0 -0 -0 -0 -0 -0 -0 0 0 0 0 0 0 -0 0 0 0 0 nan
nan -0 -0 -0 -0 -0 -0 -0 -0 -0 -0 0 0 0 -0 -0 -0 -0 -0 -0 -0 -0 -0 -0 0 0 0 0 0 0 0 0 0 0 -0 0 0 -0 -0 0 0 0 0 0 -0 -0 -0 -0 0 0 0 0 0 0 0 0 0 0 0 0 0 nan
nan -0 0 0 0 0 -0 0 0 -0 -0 0 0 0 -0 -0 -0 -0 -0 -0 0 -0 -0 -0 -0 0 0 0 0 0 0 -0 0 0 0 0 0 -0 0 0 0 0 0 0 0 0 -0 0 0 0 -0 -0 -0 -0 -0 -0 0 0 0 0 0 nan
nan -0 0 0 0 0 0 0 0 0 0 0 -0 -0 -0 0 -0 -0 -0 -0 0 0 -0 -0 -0 0 0 0 0 0 0 -0 -0 0 0 0 0 0 0 0 0 0 0 0 0 0 0 0 0 0 0 -0 -0 -0 -0 -0 0 0 0 0 0 nan
nan -1 0 0 0 0 0 0 0 0 0 0 0 0 0 0 0 0 -0 -0 0 -0 0 -0 -0 -0 -0 0 0 0 0 0 -0 -0 0 0 0 0 0 0 0 0 0 0 0 0 0 0 0 0 0 -0 -0 -0 -0 -0 -0 0 0 0 0 nan
nan -1 -1 -0 -0 0 0 0 0 0 -0 0 0 -0 -0 0 0 0 -0 0 -0 -0 -0 -0 -0 -0 -0 -0 0 0 0 0 0 0 -0 0 0 0 0 0 0 0 0 0 -0 -0 0 0 0 0 0 0 0 0 0 -0 -0 -0 -0 -0 0 nan
nan -0 -1 -1 -1 -1 -0 -0 0 0 0 0 0 0 0 0 -0 -0 0 0 -0 -0 -0 0 0 0 -0 -0 0 0 0 0 0 0 0 -0 0 0 0 0 0 -0 -0 -0 -0 -0 -0 0 0 0 0 0 0 0 0 0 -0 -0 -0 -0 -0 nan
nan -0 -0 -1 -1 -1 -0 -0 0 0 0 0 0 0 0 0 0 -0 0 0 0 0 -0 0 0 0 0 -0 0 0 0 0 0 0 0 0 0 0 -0 0 0 -0 -0 -0 -0 -0 -0 -0 0 0 0 -0 0 0 -0 -0 -0 -0 -0 -1 -1 nan
nan -0 0 -0 -0 -0 -0 -0 -0 -0 -0 -0 -0 0 0 0 0 0 0 0 0 0 0 0 0 0 0 0 0 0 0 0 0 0 0 0 0 0 0 0 0 -0 -0 0 0 0 0 -0 -0 0 0 0 -0 -0 -0 -0 -0 -0 -0 -0 -1 nan
nan -1 -0 0 0 0 0 -0 -0 -0 -0 -0 -0 -0 -0 -0 -0 -0 -0 0 -0 -0 0 0 0 0 0 0 0 0 0 0 0 0 0 0 -0 0 0 0 0 0 0 0 0 0 0 0 -0 -0 0 0 0 0 0 0 -0 -0 -0 -0 -0 nan
nan -0 -0 0 0 0 0 -0 -0 -0 -0 -0 -0 -0 -0 -0 -0 -0 -0 -0 -0 -0 -0 -0 0 0 0 0 0 0 0 0 0 0 0 0 0 0 0 0 0 0 0 -0 -0 0 0 0 0 0 0 0 0 0 0 0 0 0 -0 -0 -0 nan
nan 1 1 1 -0 -0 0 0 -0 0 0 0 0 -0 -0 -0 -0 -0 -0 -0 -0 -0 -0 0 0 0 0 0 0 0 0 0 0 0 0 0 0 0 -0 0 0 0 0 0 -0 -0 0 0 0 0 0 0 -0 0 0 0 0 0 0 0 -0 nan
nan 2 2 0 -0 -0 0 0 -0 0 0 0 0 0 -0 -0 -0 0 -0 0 0 0 0 0 0 0 0 -0 0 0 0 0 0 0 0 0 0 0 -0 -0 0 0 0 0 0 0 0 0 0 0 0 0 0 0 0 0 0 0 0 0 0 nan
nan 1 1 1 0 0 0 0 0 0 0 0 0 0 -0 -0 -0 -0 0 0 0 0 0 0 -0 0 -0 -0 0 -0 0 0 0 0 0 0 0 0 -0 -0 0 0 -0 -0 0 0 0 0 0 0 0 0 0 0 0 0 0 0 0 0 0 nan
nan nan nan nan nan nan nan nan nan nan nan nan nan nan nan nan nan nan nan nan nan nan nan nan nan nan nan nan nan nan nan nan nan nan nan nan nan nan nan nan nan nan nan nan nan nan nan nan nan nan nan nan nan nan nan nan nan nan nan nan nan nan
Wind_Speed
29 28 25 22 21 21 21 20 18 16 15 15 15 14 14 14 14 13 13 12 11 10 9 8 7 7 6 5 4 5 5 4 3 3 2 2 2 2 2 1 1 2 4 5 6 6 7 8 11 12 13 16 16 14 14 11 7 7 8 5 5 5
29 28 24 22 23 23 22 21 18 17 15 15 16 15 15 15 15 15 14 12 11 10 9 8 7 7 7 5 5 5 4 4 4 4 3 2 3 3 2 2 2 3 5 7 8 7 8 8 10 12 12 14 12 11 13 10 6 6 8 6 5 6
29 27 24 23 24 23 22 21 19 18 17 16 17 16 16 16 16 15 13 12 9 8 8 8 7 7 7 6 5 5 4 4 3 3 3 3 3 3 3 3 3 3 5 8 10 10 8 7 9 10 10 11 9 9 12 9 6 8 9 6 5 5
29 27 24 24 24 24 22 21 20 19 18 17 17 16 17 17 16 14 12 11 9 8 8 8 7 7 6 6 6 5 4 4 3 2 2 3 3 3 4 4 5 6 7 9 10 10 7 5 8 9 10 9 6 8 11 7 7 9 8 4 3 5
28 27 26 25 24 25 24 21 19 19 18 18 19 18 17 17 15 13 11 11 9 9 9 8 8 7 6 6 6 5 4 3 2 2 2 2 3 4 5 5 6 8 9 10 10 10 6 8 8 8 9 7 6 8 8 7 9 9 8 5 3 5
28 28 27 26 27 27 25 22 20 19 18 18 19 18 17 15 13 12 11 10 9 9 8 8 8 7 6 6 6 5 5 4 3 3 2 3 2 3 5 5 6 7 8 8 8 8 9 10 9 8 7 7 8 10 8 8 9 9 7 6 5 4
29 29 27 27 28 27 24 22 20 19 18 18 18 17 17 15 13 13 10 8 9 9 8 7 7 7 6 6 6 6 6 5 5 4 4 4 3 2 4 5 7 7 6 6 5 7 9 9 9 9 7 7 8 10 9 9 9 8 5 4 4 3
29 29 28 28 28 26 24 22 21 20 18 19 19 17 17 17 14 11 10 9 9 8 8 7 8 7 6 6 6 7 6 6 6 6 6 5 4 4 4 5 6 7 6 5 6 8 8 8 10 9 7 7 8 8 11 10 8 7 5 4 3 2
28 28 28 28 27 25 24 22 21 20 18 19 19 15 13 15 13 10 10 10 8 8 8 8 8 8 8 8 7 7 7 7 8 8 8 7 5 6 6 5 6 5 5 7 8 8 9 9 9 9 9 9 10 10 10 9 6 4 4 3 2 2
26 27 28 27 26 25 23 22 21 20 18 17 14 12 10 10 10 9 10 11 8 7 7 8 7 8 8 7 8 7 7 8 9 10 9 8 6 7 7 8 8 6 7 9 8 8 10 9 8 9 11 10 10 10 8 8 7 5 3 1 2 3
24 26 28 27 24 23 23 21 19 17 14 14 11 10 10 8 8 9 10 10 8 6 7 8 7 9 8 6 7 6 6 7 10 10 9 9 9 9 9 10 11 8 8 9 8 8 8 8 8 9 11 10 9 9 8 7 8 7 4 1 2 2
22 26 26 24 21 20 20 16 14 12 10 11 9 10 11 9 9 10 10 8 7 6 7 8 8 8 7 6 7 5 4 6 10 11 10 9 9 11 11 12 11 10 10 10 9 9 10 10 10 9 9 9 8 8 9 9 9 8 4 2 1 0
19 22 22 19 16 14 13 10 8 8 6 7 8 9 9 8 9 9 8 8 8 8 7 8 8 7 7 7 6 6 6 8 10 10 10 10 9 10 11 13 11 10 11 12 11 10 12 13 11 8 7 7 7 7 8 8 9 7 4 2 2 1
16 16 15 14 13 11 11 9 8 9 6 6 8 8 8 6 6 6 7 8 7 7 7 7 7 7 8 7 6 7 8 9 10 10 10 11 11 10 9 11 10 11 12 13 13 12 14 14 11 9 7 6 6 7 7 6 6 6 4 3 3 2
15 14 11 11 11 11 12 10 10 11 7 6 6 6 6 6 6 6 6 7 7 6 7 7 7 8 8 7 8 9 9 9 10 10 11 12 12 10 8 10 9 9 12 13 12 13 13 12 10 8 8 9 8 9 9 8 6 6 4 2 2 2
14 13 11 11 10 10 10 8 10 10 7 6 5 4 5 6 6 7 8 8 8 7 7 8 9 8 7 8 10 10 9 10 12 11 11 12 13 11 9 10 8 5 9 12 11 11 10 9 9 9 9 10 9 9 10 10 7 6 5 3 2 2
12 12 11 11 10 10 9 7 9 8 6 4 3 4 4 4 5 7 8 8 8 7 7 8 8 6 7 10 12 11 10 11 11 10 10 11 11 11 11 10 8 7 7 10 10 8 8 8 9 10 9 8 8 9 9 8 7 5 6 4 2 2
11 12 11 11 10 9 8 6 7 6 4 2 3 4 3 3 4 5 6 7 7 6 5 7 7 6 8 10 12 13 12 10 8 9 9 10 11 12 12 10 8 10 7 8 10 9 8 8 8 10 10 9 7 8 8 6 5 5 5 4 2 1
12 13 12 12 10 8 6 5 5 4 3 2 2 2 1 2 2 2 3 5 5 4 5 7 7 7 8 9 11 11 10 7 6 9 10 10 13 13 11 10 9 10 8 7 10 10 9 8 8 9 10 9 7 6 6 6 5 4 3 3 3 1
13 13 11 10 10 8 7 6 6 6 6 6 5 4 4 6 5 3 2 3 4 3 4 5 6 6 7 8 10 10 7 6 7 10 11 10 12 13 10 9 9 9 9 8 8 9 9 8 8 9 9 8 7 5 5 5 3 3 5 5 5 2
14 14 11 9 9 9 10 8 8 8 8 7 6 5 3 3 3 3 2 1 2 2 3 4 5 6 6 7 9 8 6 7 9 10 10 9 11 12 10 10 10 9 10 8 7 8 9 9 8 8 8 8 9 7 6 6 4 5 6 5 5 3
15 15 12 10 11 11 10 9 10 10 9 6 5 3 2 3 2 1 1 2 1 1 1 2 4 5 7 7 8 8 7 8 9 7 9 9 10 11 10 10 10 9 10 9 8 9 10 10 10 10 9 9 10 8 6 6 6 6 6 5 5 6
16 15 14 13 13 12 10 10 11 9 5 3 5 5 2 1 1 1 3 2 2 2 2 2 3 3 5 6 5 6 6 7 7 6 8 9 9 10 10 9 9 8 10 9 9 10 11 11 11 10 10 9 9 8 6 6 6 7 8 8 6 7
15 14 15 16 14 13 11 11 10 6 6 9 10 8 4 4 3 3 2 2 3 2 2 3 3 4 4 5 4 4 5 6 7 7 8 8 8 9 9 9 9 9 10 10 10 10 11 12 10 10 11 9 7 7 7 6 7 8 8 9 7 6
16 15 17 17 14 12 11 10 9 9 10 9 7 7 4 4 4 3 3 3 3 3 3 4 3 3 4 4 3 3 4 5 7 7 7 8 8 9 9 9 9 9 9 9 10 9 9 10 9 10 11 8 6 6 7 8 9 9 9 7 5 6
19 18 17 16 15 13 11 10 10 10 8 6 6 6 4 4 3 3 3 4 3 3 4 4 4 4 4 4 3 2 2 3 5 5 6 7 8 8 8 9 8 8 9 9 9 9 8 9 9 10 10 8 6 6 8 11 10 9 10 8 7 10
21 20 17 17 16 14 12 12 10 8 8 8 8 8 6 5 5 5 4 2 2 4 4 2 4 5 5 4 3 2 2 3 3 2 5 6 7 7 6 7 7 7 7 7 8 8 7 7 10 11 10 9 8 5 7 12 11 11 12 9 8 11
23 22 19 19 18 16 16 15 11 9 9 9 10 10 10 8 6 5 5 4 5 6 5 3 4 6 5 4 4 4 3 3 2 3 1 3 4 5 4 4 6 7 6 6 7 7 6 6 7 9 9 9 8 5 9 12 10 11 12 10 8 6
24 24 22 20 20 18 16 15 13 13 13 12 10 9 8 8 7 6 6 7 5 5 5 4 5 6 5 3 3 5 7 8 6 2 2 3 4 6 7 7 8 7 6 6 5 5 7 7 5 6 8 10 9 7 11 11 8 11 12 12 10 6
24 25 23 21 19 16 15 15 14 13 13 12 11 9 7 6 6 6 6 7 7 4 3 4 5 6 5 3 3 4 7 11 13 10 7 6 5 8 10 8 7 6 6 6 5 5 7 8 6 5 8 11 10 10 12 10 8 11 12 12 11 8
22 24 23 20 18 17 17 17 15 13 13 13 12 10 8 5 5 5 5 6 6 4 4 4 5 6 6 4 5 6 5 6 10 10 9 6 5 6 7 6 4 4 4 4 4 5 6 8 8 6 8 9 9 10 11 10 10 11 11 11 10 10
22 24 22 19 19 20 19 18 15 13 12 12 11 9 7 6 5 5 5 5 5 5 5 4 3 4 4 3 5 9 6 3 7 9 7 6 6 6 6 5 4 4 5 4 4 6 8 9 10 10 11 10 10 11 10 8 7 6 8 9 10 12
24 24 21 19 20 21 20 17 14 12 10 10 10 9 7 7 6 5 5 5 5 5 4 4 3 3 4 5 6 9 6 4 7 9 7 6 7 7 7 6 5 5 5 6 7 9 11 11 12 12 11 9 9 9 7 7 6 5 9 11 10 13
25 24 22 20 21 21 18 16 14 11 9 9 10 10 8 8 7 6 6 5 5 5 5 5 5 4 6 7 7 8 6 5 7 8 9 11 11 9 8 8 8 8 8 9 11 12 13 14 14 11 9 9 11 9 7 9 10 10 11 9 8 13
27 27 25 22 21 21 18 15 13 10 9 9 10 11 9 8 8 7 7 7 6 6 6 6 7 8 9 9 8 8 7 7 8 9 11 14 14 10 9 11 12 12 12 12 12 13 14 15 14 12 10 10 10 10 9 10 9 9 8 7 8 12
28 28 26 22 20 20 19 16 12 10 10 10 11 11 9 8 8 8 8 7 7 7 8 8 7 7 7 6 5 6 7 9 10 11 11 14 16 12 10 12 13 12 12 11 11 11 12 13 13 13 12 10 11 12 12 9 8 10 9 7 11 12
27 26 23 20 20 21 20 17 13 12 12 11 11 11 9 8 9 10 10 9 9 10 10 9 6 5 5 6 7 8 8 9 10 11 11 12 14 12 11 14 15 13 13 12 10 10 11 12 13 13 12 12 12 12 12 11 11 13 12 10 13 11
Wind_Direction
174 169 172 176 176 171 172 176 177 174 172 170 169 163 157 156 153 150 146 141 140 142 145 149 153 156 166 184 197 195 191 205 214 218 214 188 196 201 209 194 165 166 170 181 184 185 173 167 162 152 148 140 131 116 106 106 137 216 245 242 257 276
173 171 178 182 177 172 173 178 179 173 172 171 167 164 159 157 153 150 149 146 146 148 153 163 164 165 177 189 207 212 203 206 207 208 213 188 189 196 193 177 154 154 162 166 168 173 171 167 165 158 155 152 148 127 116 117 140 211 240 248 277 291
175 178 185 186 178 174 175 179 183 179 175 170 166 164 158 156 156 157 154 149 151 153 160 170 174 178 184 195 207 219 227 224 214 203 201 189 187 186 184 173 147 150 157 157 161 157 149 161 168 164 160 158 161 136 122 129 162 212 238 253 284 309
181 187 190 189 181 176 178 180 182 180 176 168 163 161 159 161 163 162 156 154 160 160 166 173 182 191 190 197 204 217 236 236 221 199 191 184 172 178 176 159 142 139 132 138 146 133 130 169 166 164 165 155 146 127 123 146 194 222 242 263 299 333
189 193 192 191 187 180 178 180 179 177 173 167 163 161 163 167 166 161 159 162 164 167 178 184 184 194 199 201 206 212 228 230 210 185 185 180 154 151 147 139 140 138 123 121 123 119 161 196 167 161 163 153 149 134 137 176 205 225 243 261 289 332
193 195 194 187 184 182 181 180 178 176 171 170 167 163 165 168 168 163 162 166 169 178 188 193 190 191 197 204 214 214 219 226 209 194 198 197 172 153 151 146 141 142 126 110 114 137 190 196 167 163 167 173 167 146 154 191 203 219 239 253 268 305
193 194 195 185 182 183 184 181 177 177 173 173 168 168 171 167 173 168 165 175 179 190 194 200 204 195 196 207 222 222 217 225 222 211 203 204 208 209 201 170 143 139 127 109 135 171 197 193 162 165 181 180 157 148 170 198 218 228 247 266 264 293
194 193 192 186 184 185 185 183 180 179 175 175 169 174 172 159 170 172 167 179 180 189 194 201 205 197 200 203 217 225 221 230 230 220 209 207 208 214 219 192 160 142 134 152 179 180 192 184 161 169 179 161 153 171 184 190 219 230 246 280 274 303
194 192 191 187 187 187 185 182 182 181 177 179 171 165 156 148 166 176 176 184 183 184 191 208 206 198 201 202 217 232 230 229 224 218 212 209 207 203 202 195 180 157 161 184 180 171 183 184 171 171 165 161 177 189 182 174 187 210 233 276 301 340
192 192 192 187 188 189 185 183 183 182 179 181 172 152 140 148 167 178 188 194 196 188 193 213 205 196 200 203 216 230 229 220 219 221 216 213 213 209 202 189 179 169 179 182 176 175 182 182 171 164 163 176 193 183 173 167 163 187 223 293 343 348
186 189 190 188 191 189 185 184 182 178 176 175 171 162 156 165 179 190 199 197 202 198 199 212 202 196 196 198 210 219 224 219 221 220 215 214 216 224 218 197 183 181 186 173 174 181 167 163 164 173 176 182 196 185 183 180 169 189 213 237 323 340
180 185 186 188 190 188 183 176 170 168 169 169 174 181 172 175 184 192 200 196 203 208 207 212 207 205 198 197 203 201 211 225 224 215 212 213 222 233 229 221 209 197 189 164 167 178 162 164 171 181 186 179 185 183 183 184 178 182 185 189 221 302
172 179 179 182 179 179 177 160 160 167 162 168 180 189 181 179 183 186 196 200 209 216 219 217 211 213 209 200 199 200 211 228 225 214 213 212 219 225 226 242 232 195 180 156 153 169 166 169 167 169 181 170 158 155 161 168 175 180 174 178 191 174
158 159 161 163 150 142 147 143 168 182 177 179 183 187 186 191 198 201 209 214 223 229 231 229 217 217 216 205 211 223 220 224 221 215 216 213 217 219 223 240 220 176 171 158 157 171 171 167 159 162 170 158 143 136 138 141 150 167 177 192 190 174
145 140 141 146 139 132 137 143 164 178 182 186 189 198 206 217 225 226 227 232 242 250 248 242 231 229 224 211 223 233 224 222 223 216 212 211 214 214 215 221 202 166 162 161 164 171 171 165 155 153 155 161 155 132 139 143 131 145 162 168 165 172
138 129 129 138 140 139 143 153 164 173 174 176 199 216 225 239 243 241 243 249 251 253 251 243 237 240 237 222 226 236 225 219 221 215 206 207 209 202 205 213 205 182 163 156 159 164 164 162 157 150 151 166 157 126 137 144 131 140 150 141 124 149
137 118 120 133 134 146 158 159 162 173 172 172 223 237 248 266 264 261 257 263 266 261 252 243 241 242 243 229 225 230 221 215 218 217 208 202 200 195 205 214 194 183 171 151 151 159 160 159 161 157 154 162 150 131 137 138 130 127 125 133 128 127
131 117 125 139 137 147 151 137 148 166 176 199 256 238 250 283 269 266 262 263 270 269 261 253 246 227 225 223 218 219 215 216 223 222 212 194 193 197 206 211 186 173 172 154 146 147 158 163 162 162 165 169 163 151 148 152 160 145 131 146 156 168
123 124 131 138 138 140 134 120 135 144 139 130 104 162 225 339 309 262 254 256 257 256 259 254 244 219 210 214 216 217 218 228 232 220 209 194 198 205 203 202 189 174 178 173 151 144 159 169 163 161 168 172 172 163 150 158 172 157 146 131 110 96
128 137 138 139 145 140 136 128 122 120 113 104 81 65 30 19 12 349 308 277 270 258 261 253 238 219 211 211 213 220 230 229 213 211 208 198 203 208 200 193 192 185 188 186 163 164 175 175 169 160 160 162 164 163 142 142 152 125 119 108 103 122
141 145 144 138 137 124 124 124 113 106 91 77 63 55 28 20 7 324 333 326 286 259 257 250 224 213 217 217 212 217 229 218 206 209 210 198 201 209 204 194 193 189 190 183 163 179 186 181 178 165 160 160 160 164 149 141 132 108 107 103 112 133
144 141 142 125 123 123 120 119 111 93 69 50 60 84 269 263 234 265 49 61 11 195 187 206 208 216 221 213 211 217 219 215 208 202 202 195 194 204 205 195 189 186 190 184 165 175 184 186 186 176 171 171 172 179 171 158 139 122 120 101 75 65
139 135 139 129 131 133 124 123 114 90 78 128 144 162 205 347 49 89 91 85 66 90 114 129 162 193 206 195 205 218 204 199 193 184 193 197 195 195 195 189 186 189 189 182 173 176 186 199 201 187 177 176 184 186 175 170 150 134 133 115 87 63
141 135 142 142 137 135 137 137 126 122 173 183 177 178 155 85 67 58 74 98 97 100 100 111 139 150 167 177 195 202 182 184 190 193 196 197 198 194 194 192 192 197 188 181 183 179 188 203 201 190 184 177 180 179 170 166 143 123 112 103 106 106
143 140 140 138 134 142 154 148 151 178 190 189 177 170 147 102 85 67 54 72 97 111 106 101 97 96 123 142 158 158 163 181 185 188 186 187 197 200 205 207 207 209 194 187 189 181 195 205 191 185 187 177 174 180 171 153 132 119 116 110 106 107
145 143 139 137 135 141 147 148 165 177 167 148 141 140 125 100 108 123 94 77 90 92 95 112 107 84 86 108 138 144 153 164 159 174 180 181 189 192 201 203 207 210 193 192 191 177 190 204 196 195 192 187 192 199 181 160 139 125 125 118 105 105
147 145 141 139 135 137 142 145 149 142 133 138 146 151 151 145 163 180 151 107 73 79 69 68 97 89 73 85 117 120 171 166 118 122 167 174 179 176 181 182 187 193 184 193 193 177 179 188 194 202 205 207 207 201 178 164 150 138 129 111 109 119
150 150 149 144 143 151 150 142 141 144 152 166 173 172 170 169 179 181 141 86 57 82 87 59 83 96 84 84 113 114 136 152 59 6 80 164 180 168 162 177 190 185 176 190 192 184 184 173 179 194 199 205 206 187 167 161 147 144 137 117 116 122
155 155 155 152 152 159 153 143 151 162 169 179 180 170 169 177 178 159 127 114 116 127 134 119 96 92 85 86 139 151 154 151 150 183 178 165 176 175 185 204 203 184 176 187 180 175 177 163 165 179 169 172 181 172 163 158 142 147 144 126 123 113
162 160 160 157 155 160 156 150 158 167 172 170 157 153 168 180 171 156 147 154 158 147 145 141 123 116 120 134 148 149 159 159 158 162 167 176 183 179 182 188 182 173 182 186 171 172 171 162 162 159 151 157 161 161 164 165 157 155 148 133 128 119
165 164 163 163 162 163 160 158 163 166 164 157 150 158 174 166 149 149 149 156 150 135 154 162 156 154 156 176 156 117 110 158 164 163 165 174 174 163 160 159 160 167 174 171 168 170 161 159 158 134 126 137 139 145 154 156 152 149 145 134 126 128
165 166 166 166 165 164 163 164 167 165 159 158 159 161 162 147 141 148 142 145 150 156 169 163 170 169 154 156 134 116 109 144 149 147 155 161 156 143 135 140 148 137 135 134 136 143 143 146 141 119 110 111 114 122 129 135 139 147 152 137 125 134
168 170 172 170 166 166 168 169 172 173 164 162 162 159 156 147 150 165 156 156 162 160 167 168 175 170 132 122 119 126 142 156 134 131 129 122 126 129 125 132 135 122 123 123 120 130 134 128 119 110 107 113 121 126 134 138 123 124 144 141 137 140
170 171 173 171 169 172 175 174 175 178 169 168 167 159 155 151 157 174 164 155 157 159 175 180 170 141 134 146 152 147 148 142 134 136 126 108 98 102 112 115 112 107 106 109 115 124 129 127 122 119 125 141 146 148 156 140 110 103 124 131 139 138
172 171 169 169 168 172 178 179 179 179 173 172 163 154 159 164 166 172 161 150 158 175 186 184 173 164 168 179 174 156 147 136 124 120 122 115 105 105 116 113 109 109 109 111 121 129 134 136 134 131 135 143 143 135 133 131 115 110 126 133 127 124
177 172 169 168 166 169 178 183 183 180 174 167 158 159 172 179 171 163 154 153 172 191 195 197 193 182 181 179 154 141 142 140 131 123 126 128 128 135 139 121 111 110 110 114 125 133 137 140 136 128 124 124 132 130 126 135 139 125 125 130 125 121
182 175 169 166 163 168 177 182 182 178 176 172 167 174 186 187 174 163 158 166 185 199 206 212 206 179 158 137 134 144 149 149 147 140 138 140 141 145 142 127 122 123 123 124 128 127 124 124 118 113 112 114 125 135 138 147 141 120 109 115 128 127
Height
1505 1507 1509 1510 1512 1514 1515 1517 1519 1521 1522 1523 1524 1526 1527 1528 1530 1531 1533 1533 1533 1535 1537 1538 1539 1539 1540 1540 1541 1541 1542 1542 1543 1544 1545 1545 1546 1546 1547 1547 1548 1548 1548 1549 1549 1550 1550 1552 1553 1555 1556 1557 1558 1558 1558 1561 1561 1558 1558 1559 1559 1559
1506 1508 1510 1510 1512 1513 1515 1517 1519 1520 1522 1523 1524 1526 1527 1528 1530 1531 1533 1533 1533 1535 1537 1538 1539 1539 1540 1540 1541 1541 1542 1542 1543 1544 1545 1545 1546 1546 1547 1547 1548 1548 1548 1548 1549 1550 1551 1552 1554 1555 1557 1557 1558 1558 1559 1561 1561 1558 1558 1559 1560 1560
1507 1508 1509 1510 1511 1513 1515 1516 1518 1520 1521 1522 1524 1525 1527 1528 1529 1531 1532 1532 1533 1535 1537 1538 1539 1540 1540 1540 1541 1541 1542 1542 1543 1544 1544 1545 1546 1546 1547 1547 1548 1548 1548 1548 1549 1550 1551 1553 1554 1556 1557 1558 1558 1558 1560 1561 1560 1558 1558 1560 1560 1560
1507 1508 1509 1510 1511 1513 1515 1516 1517 1519 1520 1521 1523 1525 1526 1527 1528 1530 1531 1531 1533 1535 1537 1538 1539 1540 1540 1541 1541 1541 1542 1542 1543 1544 1545 1545 1546 1546 1547 1547 1548 1549 1549 1549 1549 1550 1551 1553 1554 1556 1557 1558 1558 1559 1560 1561 1560 1559 1559 1560 1560 1560
1506 1507 1508 1509 1510 1512 1514 1515 1517 1518 1519 1520 1522 1524 1525 1526 1527 1529 1531 1531 1533 1535 1536 1538 1539 1540 1540 1541 1541 1541 1542 1543 1543 1544 1545 1545 1546 1547 1547 1548 1548 1549 1549 1550 1550 1551 1553 1554 1555 1556 1557 1558 1558 1559 1560 1560 1559 1559 1559 1561 1561 1561
1504 1506 1507 1509 1510 1512 1513 1514 1516 1517 1519 1520 1522 1523 1524 1526 1527 1530 1531 1532 1534 1535 1536 1537 1538 1539 1540 1541 1541 1542 1542 1543 1543 1544 1545 1545 1546 1547 1548 1548 1549 1549 1550 1550 1550 1552 1554 1554 1555 1556 1557 1558 1559 1560 1561 1559 1558 1559 1560 1561 1562 1562
1503 1505 1507 1508 1510 1512 1513 1514 1515 1517 1518 1520 1522 1523 1524 1526 1528 1530 1532 1533 1534 1535 1536 1537 1538 1539 1540 1541 1542 1542 1543 1543 1543 1544 1545 1546 1546 1547 1548 1549 1549 1550 1550 1550 1551 1553 1554 1554 1555 1557 1558 1559 1559 1560 1561 1559 1559 1560 1561 1561 1562 1562
1503 1505 1506 1508 1510 1511 1512 1513 1515 1517 1519 1520 1521 1522 1524 1527 1529 1530 1533 1533 1534 1536 1536 1537 1538 1539 1539 1540 1541 1542 1543 1543 1544 1544 1545 1546 1546 1547 1549 1549 1550 1550 1550 1551 1552 1553 1554 1554 1556 1557 1558 1559 1560 1560 1560 1559 1559 1560 1561 1562 1562 1563
1503 1504 1506 1508 1509 1510 1511 1513 1515 1517 1518 1520 1521 1522 1525 1529 1531 1532 1534 1534 1536 1537 1537 1538 1539 1539 1539 1540 1541 1541 1542 1543 1544 1544 1545 1546 1547 1548 1548 1549 1550 1550 1550 1552 1553 1553 1554 1555 1555 1556 1558 1559 1559 1559 1559 1559 1559 1560 1561 1562 1562 1563
1503 1504 1505 1507 1508 1510 1512 1514 1515 1517 1518 1520 1522 1525 1528 1531 1533 1534 1535 1535 1537 1537 1537 1538 1539 1539 1539 1540 1541 1541 1542 1542 1543 1544 1545 1546 1547 1547 1548 1549 1549 1551 1551 1552 1553 1553 1554 1555 1555 1556 1557 1557 1557 1558 1559 1560 1560 1559 1560 1562 1562 1563
1504 1504 1505 1507 1509 1511 1513 1515 1517 1519 1520 1522 1524 1527 1531 1532 1534 1535 1535 1536 1536 1537 1537 1538 1539 1539 1539 1540 1541 1541 1542 1542 1543 1544 1545 1546 1546 1547 1548 1549 1548 1550 1552 1552 1553 1553 1554 1555 1555 1556 1556 1556 1556 1559 1561 1561 1561 1560 1560 1561 1562 1563
1504 1505 1506 1509 1512 1514 1515 1518 1520 1521 1522 1524 1526 1529 1532 1533 1534 1536 1535 1535 1536 1536 1537 1538 1539 1539 1539 1540 1540 1541 1542 1543 1544 1545 1545 1546 1547 1547 1548 1550 1549 1549 1551 1551 1553 1554 1554 1555 1554 1554 1555 1556 1557 1559 1561 1561 1562 1562 1561 1561 1563 1563
1506 1507 1509 1512 1514 1516 1520 1522 1523 1523 1524 1526 1528 1530 1531 1531 1533 1535 1534 1535 1536 1536 1537 1538 1538 1539 1540 1540 1541 1542 1542 1543 1544 1544 1545 1545 1547 1548 1549 1551 1550 1549 1549 1550 1553 1553 1554 1554 1554 1554 1555 1556 1557 1559 1561 1561 1561 1562 1561 1562 1563 1563
1508 1510 1512 1515 1517 1519 1523 1524 1524 1526 1527 1528 1529 1530 1530 1531 1532 1533 1534 1534 1535 1536 1537 1538 1538 1539 1540 1540 1541 1542 1543 1543 1543 1543 1545 1545 1547 1548 1549 1551 1551 1549 1550 1551 1552 1553 1553 1554 1554 1554 1555 1557 1558 1559 1560 1561 1561 1562 1562 1562 1563 1563
1510 1511 1514 1516 1518 1521 1523 1525 1526 1527 1528 1529 1529 1529 1529 1530 1531 1532 1533 1533 1534 1535 1536 1537 1538 1538 1539 1540 1541 1542 1543 1543 1543 1544 1545 1546 1547 1548 1548 1551 1551 1550 1550 1552 1553 1553 1554 1554 1554 1555 1556 1557 1558 1560 1561 1561 1562 1563 1563 1563 1563 1564
1510 1512 1514 1515 1518 1521 1523 1525 1526 1527 1528 1528 1528 1528 1529 1529 1530 1531 1532 1532 1533 1535 1536 1537 1537 1538 1538 1540 1540 1541 1543 1542 1543 1544 1546 1547 1548 1548 1548 1549 1552 1552 1552 1552 1553 1554 1554 1555 1555 1555 1556 1557 1559 1561 1561 1562 1563 1564 1563 1563 1564 1564
1511 1513 1514 1516 1518 1520 1522 1523 1525 1526 1527 1527 1528 1528 1529 1529 1530 1530 1531 1532 1533 1534 1535 1535 1536 1537 1537 1539 1539 1540 1542 1542 1542 1544 1546 1547 1547 1547 1548 1549 1552 1554 1554 1553 1553 1554 1554 1555 1555 1556 1556 1557 1559 1560 1561 1562 1563 1563 1564 1563 1564 1564
1512 1514 1515 1517 1518 1519 1520 1522 1523 1525 1526 1527 1528 1528 1529 1530 1530 1530 1531 1531 1532 1533 1534 1534 1535 1536 1537 1538 1538 1539 1541 1541 1541 1544 1545 1546 1547 1547 1548 1550 1552 1553 1554 1554 1553 1554 1554 1554 1555 1556 1557 1557 1558 1560 1561 1561 1562 1563 1563 1563 1563 1563
1514 1515 1517 1518 1519 1520 1520 1522 1523 1524 1525 1527 1528 1528 1529 1530 1530 1531 1531 1532 1532 1533 1534 1534 1535 1536 1536 1537 1537 1538 1539 1540 1541 1543 1545 1546 1546 1547 1548 1550 1551 1553 1554 1554 1553 1554 1554 1554 1555 1556 1557 1557 1558 1559 1560 1561 1561 1561 1561 1562 1563 1563
1516 1517 1518 1519 1520 1522 1523 1523 1525 1526 1527 1528 1528 1528 1529 1529 1530 1531 1532 1532 1532 1533 1534 1534 1535 1535 1536 1536 1536 1537 1538 1539 1541 1543 1545 1546 1546 1547 1548 1549 1550 1552 1553 1554 1554 1555 1554 1554 1555 1556 1557 1557 1558 1558 1559 1560 1560 1561 1561 1563 1564 1564
1516 1518 1519 1520 1522 1523 1525 1525 1527 1528 1528 1529 1529 1529 1529 1530 1531 1531 1532 1533 1533 1534 1534 1534 1535 1536 1536 1535 1536 1537 1538 1539 1541 1543 1544 1545 1546 1547 1548 1549 1550 1552 1553 1554 1554 1555 1555 1555 1555 1555 1556 1557 1558 1558 1559 1560 1561 1561 1562 1564 1565 1565
1518 1520 1521 1522 1523 1524 1526 1527 1527 1528 1529 1530 1531 1531 1531 1531 1532 1533 1533 1534 1534 1534 1535 1535 1536 1536 1536 1536 1537 1537 1537 1539 1541 1542 1543 1545 1546 1547 1547 1548 1550 1551 1552 1553 1553 1554 1555 1555 1555 1555 1556 1557 1558 1558 1559 1560 1561 1561 1563 1564 1564 1565
1520 1521 1522 1523 1524 1525 1526 1527 1527 1528 1529 1531 1532 1532 1532 1533 1533 1534 1535 1535 1535 1535 1535 1535 1536 1536 1536 1537 1537 1536 1537 1538 1540 1541 1543 1544 1545 1546 1547 1548 1549 1550 1551 1552 1553 1553 1554 1554 1554 1555 1556 1557 1557 1558 1559 1559 1560 1561 1563 1564 1564 1565
1519 1520 1521 1523 1524 1525 1527 1527 1528 1529 1531 1532 1533 1533 1533 1534 1535 1535 1536 1536 1536 1536 1536 1536 1536 1537 1537 1538 1537 1537 1537 1538 1540 1541 1542 1543 1545 1546 1547 1548 1549 1550 1551 1552 1552 1553 1553 1553 1554 1555 1556 1556 1557 1557 1558 1559 1560 1561 1563 1564 1565 1565
1517 1519 1521 1523 1524 1526 1527 1528 1529 1531 1532 1533 1533 1534 1534 1535 1536 1536 1537 1537 1537 1537 1537 1537 1537 1537 1538 1538 1537 1537 1538 1539 1540 1541 1541 1542 1544 1545 1546 1547 1548 1549 1550 1551 1551 1552 1552 1552 1553 1554 1555 1555 1556 1556 1557 1558 1559 1561 1562 1564 1565 1565
1515 1518 1520 1522 1524 1526 1527 1529 1531 1533 1533 1533 1534 1534 1535 1536 1537 1537 1538 1538 1538 1538 1538 1538 1538 1538 1539 1539 1538 1538 1538 1539 1540 1541 1541 1542 1543 1544 1545 1546 1547 1548 1550 1551 1551 1551 1551 1551 1552 1553 1554 1554 1555 1555 1556 1557 1558 1560 1562 1563 1564 1564
1514 1517 1520 1522 1523 1526 1528 1530 1532 1533 1534 1534 1534 1534 1535 1536 1537 1538 1538 1539 1539 1539 1539 1539 1539 1539 1539 1539 1539 1539 1538 1539 1540 1541 1541 1542 1542 1543 1544 1546 1547 1548 1549 1550 1550 1551 1551 1551 1551 1552 1553 1553 1554 1554 1555 1556 1557 1559 1560 1562 1563 1563
1513 1515 1519 1522 1524 1526 1529 1531 1532 1534 1534 1534 1534 1534 1535 1536 1536 1537 1538 1539 1539 1539 1539 1539 1539 1540 1540 1540 1540 1539 1539 1539 1540 1541 1541 1541 1542 1543 1544 1545 1546 1547 1548 1549 1550 1550 1550 1550 1551 1552 1552 1553 1554 1553 1554 1555 1556 1558 1559 1561 1562 1563
1513 1514 1517 1520 1523 1526 1528 1530 1532 1533 1533 1533 1534 1534 1535 1535 1536 1537 1538 1539 1539 1540 1539 1540 1540 1541 1541 1541 1540 1540 1539 1539 1540 1541 1541 1541 1542 1543 1544 1544 1545 1546 1547 1548 1549 1549 1550 1550 1551 1552 1552 1553 1553 1553 1554 1555 1557 1558 1559 1560 1561 1563
1512 1514 1516 1518 1521 1524 1526 1529 1531 1532 1532 1533 1534 1535 1535 1535 1536 1537 1537 1538 1539 1539 1539 1540 1540 1541 1542 1541 1541 1540 1540 1539 1539 1540 1540 1540 1541 1542 1543 1543 1544 1545 1546 1547 1548 1548 1549 1550 1550 1551 1551 1552 1553 1553 1554 1555 1557 1558 1559 1559 1561 1562
1511 1513 1515 1517 1519 1522 1525 1528 1530 1531 1531 1532 1533 1534 1535 1535 1535 1536 1537 1538 1539 1540 1540 1540 1540 1541 1541 1541 1541 1541 1540 1540 1539 1540 1540 1540 1540 1541 1542 1542 1543 1544 1545 1545 1546 1547 1548 1549 1550 1550 1551 1552 1553 1554 1554 1555 1556 1557 1558 1559 1560 1562
1511 1513 1515 1516 1518 1520 1523 1526 1528 1529 1530 1531 1532 1533 1534 1535 1535 1536 1537 1538 1539 1539 1539 1539 1540 1540 1541 1541 1541 1541 1541 1540 1539 1539 1540 1540 1540 1540 1541 1542 1542 1543 1544 1544 1545 1546 1547 1549 1550 1550 1551 1553 1554 1554 1555 1556 1557 1557 1558 1559 1560 1562
1511 1513 1514 1516 1517 1519 1522 1524 1526 1527 1529 1530 1531 1532 1533 1535 1535 1536 1536 1537 1537 1538 1538 1539 1539 1539 1540 1541 1541 1541 1540 1539 1539 1539 1539 1539 1540 1540 1541 1541 1541 1542 1543 1543 1544 1546 1547 1549 1550 1551 1552 1553 1554 1555 1556 1557 1557 1557 1558 1559 1560 1561
1510 1512 1513 1515 1517 1519 1521 1523 1525 1526 1528 1529 1530 1532 1533 1534 1535 1535 1535 1536 1537 1537 1537 1538 1538 1539 1539 1540 1540 1540 1540 1539 1539 1539 1539 1540 1540 1541 1541 1541 1541 1542 1543 1544 1545 1546 1547 1549 1550 1551 1552 1553 1554 1555 1556 1556 1557 1558 1559 1560 1561 1561
1508 1510 1511 1513 1516 1518 1520 1522 1523 1525 1527 1528 1529 1531 1532 1533 1534 1534 1535 1535 1536 1536 1536 1537 1537 1537 1538 1538 1539 1539 1539 1539 1539 1540 1540 1540 1541 1541 1541 1541 1542 1543 1544 1545 1546 1547 1548 1549 1550 1551 1552 1553 1554 1555 1556 1557 1557 1558 1559 1560 1561 1561
1508 1510 1511 1512 1514 1517 1519 1521 1523 1524 1526 1527 1529 1530 1531 1532 1533 1533 1534 1535 1536 1535 1535 1535 1536 1536 1537 1537 1538 1538 1539 1539 1539 1540 1540 1540 1541 1541 1541 1542 1543 1543 1545 1546 1547 1548 1549 1550 1551 1552 1553 1554 1555 1555 1556 1556 1557 1558 1559 1560 1561 1563
1510 1512 1513 1514 1515 1517 1519 1520 1522 1524 1525 1527 1529 1530 1531 1531 1532 1533 1534 1534 1534 1534 1534 1535 1536 1536 1536 1537 1538 1538 1538 1539 1539 1540 1540 1540 1541 1541 1541 1542 1543 1544 1545 1546 1547 1548 1550 1551 1552 1553 1554 1555 1555 1556 1556 1557 1557 1558 1559 1560 1562 1564